Time,TemperatureF,DewpointF,PressureIn,WindDirection,WindDirectionDegrees,WindSpeedMPH,WindSpeedGustMPH,Humidity,HourlyPrecipIn,Conditions,Clouds,dailyrainin,SoftwareType,DateUTC
2013-03-10 00:05:00,39.7,38.0,29.55,ESE,116,6.0,14.0,94,0.04,,,0.32,weatherlink.com 1.10,2013-03-10 00:05:00,
2013-03-10 00:20:00,39.7,38.0,29.55,East,89,9.0,13.0,94,0.02,,,0.32,weatherlink.com 1.10,2013-03-10 00:20:00,
2013-03-10 00:35:00,39.5,38.0,29.56,East,101,8.0,12.0,93,0.02,,,0.33,weatherlink.com 1.10,2013-03-10 00:35:00,
2013-03-10 00:50:00,39.5,38.0,29.56,East,100,9.0,15.0,93,0.02,,,0.34,weatherlink.com 1.10,2013-03-10 00:50:00,
2013-03-10 01:05:00,39.5,38.0,29.55,SE,129,9.0,14.0,93,0.02,,,0.34,weatherlink.com 1.10,2013-03-10 01:05:00,
2013-03-10 01:20:00,39.5,37.0,29.55,ENE,75,12.0,18.0,92,0.02,,,0.34,weatherlink.com 1.10,2013-03-10 01:20:00,
2013-03-10 01:35:00,39.4,37.0,29.55,ENE,64,13.0,18.0,91,0.01,,,0.00,weatherlink.com 1.10,2013-03-10 01:35:00,
2013-03-10 01:51:00,39.5,37.0,29.56,ESE,102,9.0,14.0,90,0.00,,,0.00,weatherlink.com 1.10,2013-03-10 01:51:00,
2013-03-10 02:06:00,39.6,37.0,29.56,ESE,116,10.0,17.0,90,0.00,,,0.00,weatherlink.com 1.10,2013-03-10 02:06:00,
2013-03-10 02:21:00,39.6,37.0,29.56,East,92,7.0,18.0,89,0.01,,,0.01,weatherlink.com 1.10,2013-03-10 02:21:00,
2013-03-10 02:36:00,39.5,37.0,29.56,East,100,9.0,14.0,89,0.01,,,0.01,weatherlink.com 1.10,2013-03-10 02:36:00,
2013-03-10 02:51:00,39.5,37.0,29.56,East,100,12.0,19.0,89,0.01,,,0.01,weatherlink.com 1.10,2013-03-10 02:51:00,
2013-03-10 03:06:00,39.4,36.0,29.56,East,87,8.0,14.0,88,0.01,,,0.01,weatherlink.com 1.10,2013-03-10 03:06:00,
2013-03-10 03:21:00,39.3,36.0,29.56,ESE,121,10.0,17.0,88,0.00,,,0.01,weatherlink.com 1.10,2013-03-10 03:21:00,
2013-03-10 03:36:00,39.3,36.0,29.56,ESE,105,10.0,19.0,88,0.00,,,0.01,weatherlink.com 1.10,2013-03-10 03:36:00,
2013-03-10 03:51:00,39.2,36.0,29.56,East,96,10.0,16.0,88,0.00,,,0.01,weatherlink.com 1.10,2013-03-10 03:51:00,
2013-03-10 04:06:00,39.0,36.0,29.57,ESE,110,9.0,17.0,88,0.00,,,0.01,weatherlink.com 1.10,2013-03-10 04:06:00,
2013-03-10 04:21:00,39.0,36.0,29.57,ESE,115,4.0,18.0,88,0.00,,,0.01,weatherlink.com 1.10,2013-03-10 04:21:00,
2013-03-10 04:36:00,39.1,36.0,29.56,East,100,14.0,22.0,87,0.00,,,0.01,weatherlink.com 1.10,2013-03-10 04:36:00,
2013-03-10 04:51:00,39.1,35.0,29.56,ESE,104,10.0,17.0,86,0.00,,,0.01,weatherlink.com 1.10,2013-03-10 04:51:00,
2013-03-10 05:06:00,39.1,35.0,29.57,East,84,13.0,20.0,86,0.00,,,0.01,weatherlink.com 1.10,2013-03-10 05:06:00,
2013-03-10 05:21:00,39.2,35.0,29.57,ESE,113,14.0,20.0,85,0.00,,,0.01,weatherlink.com 1.10,2013-03-10 05:21:00,
2013-03-10 05:36:00,39.2,35.0,29.57,SSE,147,11.0,18.0,85,0.00,,,0.01,weatherlink.com 1.10,2013-03-10 05:36:00,
2013-03-10 05:51:00,39.1,35.0,29.57,SE,132,11.0,23.0,85,0.00,,,0.01,weatherlink.com 1.10,2013-03-10 05:51:00,
2013-03-10 06:06:00,39.1,35.0,29.57,East,99,8.0,21.0,85,0.00,,,0.01,weatherlink.com 1.10,2013-03-10 06:06:00,
2013-03-10 06:21:00,39.1,35.0,29.57,East,96,10.0,16.0,85,0.00,,,0.01,weatherlink.com 1.10,2013-03-10 06:21:00,
2013-03-10 06:36:00,39.1,35.0,29.57,East,101,16.0,19.0,85,0.00,,,0.01,weatherlink.com 1.10,2013-03-10 06:36:00,
2013-03-10 06:51:00,39.1,35.0,29.57,ESE,113,12.0,20.0,85,0.00,,,0.01,weatherlink.com 1.10,2013-03-10 06:51:00,
2013-03-10 07:06:00,39.2,35.0,29.58,SE,125,10.0,22.0,84,0.00,,,0.01,weatherlink.com 1.10,2013-03-10 07:06:00,
2013-03-10 07:21:00,39.2,35.0,29.58,East,99,8.0,18.0,84,0.00,,,0.01,weatherlink.com 1.10,2013-03-10 07:21:00,
2013-03-10 07:36:00,39.4,35.0,29.58,NE,37,12.0,18.0,84,0.00,,,0.01,weatherlink.com 1.10,2013-03-10 07:36:00,
2013-03-10 07:51:00,39.3,35.0,29.58,East,93,12.0,19.0,85,0.00,,,0.01,weatherlink.com 1.10,2013-03-10 07:51:00,
2013-03-10 08:06:00,39.3,35.0,29.58,ENE,76,11.0,21.0,84,0.00,,,0.01,weatherlink.com 1.10,2013-03-10 08:06:00,
2013-03-10 08:21:00,39.4,35.0,29.58,East,83,15.0,18.0,83,0.00,,,0.01,weatherlink.com 1.10,2013-03-10 08:21:00,
2013-03-10 08:36:00,39.5,35.0,29.59,East,83,20.0,22.0,84,0.00,,,0.01,weatherlink.com 1.10,2013-03-10 08:36:00,
2013-03-10 08:51:00,39.4,35.0,29.59,ESE,122,11.0,22.0,83,0.00,,,0.01,weatherlink.com 1.10,2013-03-10 08:51:00,
2013-03-10 09:06:00,39.3,35.0,29.59,SE,134,10.0,21.0,84,0.00,,,0.01,weatherlink.com 1.10,2013-03-10 09:06:00,
2013-03-10 09:21:00,39.3,35.0,29.59,NE,49,11.0,22.0,83,0.00,,,0.01,weatherlink.com 1.10,2013-03-10 09:21:00,
2013-03-10 09:36:00,39.2,35.0,29.59,East,91,16.0,21.0,83,0.00,,,0.01,weatherlink.com 1.10,2013-03-10 09:36:00,
2013-03-10 09:51:00,39.2,35.0,29.59,East,85,17.0,25.0,83,0.00,,,0.01,weatherlink.com 1.10,2013-03-10 09:51:00,
2013-03-10 10:06:00,39.0,34.0,29.60,ESE,108,13.0,23.0,83,0.00,,,0.01,weatherlink.com 1.10,2013-03-10 10:06:00,
2013-03-10 10:21:00,38.9,34.0,29.60,ENE,70,13.0,21.0,82,0.00,,,0.01,weatherlink.com 1.10,2013-03-10 10:21:00,
2013-03-10 10:37:00,38.9,34.0,29.60,ENE,70,12.0,25.0,83,0.00,,,0.01,weatherlink.com 1.10,2013-03-10 10:37:00,
2013-03-10 10:52:00,38.8,33.0,29.60,East,82,14.0,22.0,81,0.00,,,0.01,weatherlink.com 1.10,2013-03-10 10:52:00,
2013-03-10 11:07:00,38.9,33.0,29.60,East,94,16.0,21.0,80,0.01,,,0.02,weatherlink.com 1.10,2013-03-10 11:07:00,
2013-03-10 11:22:00,38.9,33.0,29.61,SE,137,11.0,19.0,79,0.01,,,0.02,weatherlink.com 1.10,2013-03-10 11:22:00,
2013-03-10 11:37:00,39.0,33.0,29.61,SE,135,10.0,22.0,79,0.01,,,0.02,weatherlink.com 1.10,2013-03-10 11:37:00,
2013-03-10 11:52:00,39.0,32.0,29.62,ESE,107,15.0,22.0,77,0.01,,,0.02,weatherlink.com 1.10,2013-03-10 11:52:00,
2013-03-10 12:07:00,39.1,32.0,29.62,ENE,78,11.0,21.0,77,0.00,,,0.02,weatherlink.com 1.10,2013-03-10 12:07:00,
2013-03-10 12:22:00,38.9,32.0,29.62,ESE,119,10.0,19.0,76,0.00,,,0.02,weatherlink.com 1.10,2013-03-10 12:22:00,
2013-03-10 12:37:00,39.0,32.0,29.62,ENE,78,17.0,21.0,75,0.00,,,0.02,weatherlink.com 1.10,2013-03-10 12:37:00,
2013-03-10 12:52:00,39.1,32.0,29.62,East,93,10.0,21.0,75,0.00,,,0.02,weatherlink.com 1.10,2013-03-10 12:52:00,
2013-03-10 13:07:00,39.1,31.0,29.63,East,93,10.0,21.0,73,0.00,,,0.02,weatherlink.com 1.10,2013-03-10 13:07:00,
2013-03-10 13:22:00,38.9,31.0,29.62,ENE,68,11.0,24.0,73,0.00,,,0.02,weatherlink.com 1.10,2013-03-10 13:22:00,
2013-03-10 13:37:00,38.9,32.0,29.63,East,82,9.0,25.0,76,0.00,,,0.02,weatherlink.com 1.10,2013-03-10 13:37:00,
2013-03-10 13:52:00,38.7,31.0,29.63,SSE,157,5.0,22.0,75,0.00,,,0.02,weatherlink.com 1.10,2013-03-10 13:52:00,
2013-03-10 14:07:00,38.8,31.0,29.63,East,82,11.0,20.0,73,0.00,,,0.02,weatherlink.com 1.10,2013-03-10 14:07:00,
2013-03-10 14:22:00,38.7,31.0,29.64,East,101,17.0,20.0,74,0.00,,,0.02,weatherlink.com 1.10,2013-03-10 14:22:00,
2013-03-10 14:37:00,38.4,31.0,29.64,ESE,122,10.0,25.0,76,0.00,,,0.02,weatherlink.com 1.10,2013-03-10 14:37:00,
2013-03-10 14:52:00,38.2,31.0,29.64,East,89,14.0,19.0,76,0.00,,,0.02,weatherlink.com 1.10,2013-03-10 14:52:00,
2013-03-10 15:07:00,37.9,30.0,29.65,SE,127,8.0,22.0,72,0.02,,,0.03,weatherlink.com 1.10,2013-03-10 15:07:00,
2013-03-10 15:22:00,37.9,30.0,29.65,ESE,108,7.0,20.0,73,0.02,,,0.03,weatherlink.com 1.10,2013-03-10 15:22:00,
2013-03-10 15:37:00,38.0,29.0,29.66,SE,125,11.0,21.0,71,0.02,,,0.03,weatherlink.com 1.10,2013-03-10 15:37:00,
2013-03-10 15:52:00,38.0,30.0,29.66,ESE,117,7.0,20.0,72,0.02,,,0.03,weatherlink.com 1.10,2013-03-10 15:52:00,
2013-03-10 16:07:00,37.9,30.0,29.66,ESE,112,8.0,24.0,72,0.00,,,0.03,weatherlink.com 1.10,2013-03-10 16:07:00,
2013-03-10 16:22:00,38.0,29.0,29.66,ENE,68,16.0,19.0,69,0.00,,,0.03,weatherlink.com 1.10,2013-03-10 16:22:00,
2013-03-10 16:37:00,38.2,28.0,29.66,ESE,105,6.0,25.0,66,0.00,,,0.03,weatherlink.com 1.10,2013-03-10 16:37:00,
2013-03-10 16:52:00,38.2,28.0,29.67,ESE,105,17.0,24.0,67,0.00,,,0.03,weatherlink.com 1.10,2013-03-10 16:52:00,
2013-03-10 17:08:00,38.0,27.0,29.68,East,99,11.0,26.0,64,0.00,,,0.03,weatherlink.com 1.10,2013-03-10 17:08:00,
2013-03-10 17:23:00,38.0,25.0,29.68,ESE,122,16.0,23.0,60,0.01,,,0.04,weatherlink.com 1.10,2013-03-10 17:23:00,
2013-03-10 17:38:00,37.9,26.0,29.68,ESE,118,10.0,22.0,63,0.01,,,0.04,weatherlink.com 1.10,2013-03-10 17:38:00,
2013-03-10 17:53:00,37.9,26.0,29.68,SE,125,10.0,26.0,63,0.01,,,0.04,weatherlink.com 1.10,2013-03-10 17:53:00,
2013-03-10 18:08:00,37.9,26.0,29.69,ESE,113,13.0,24.0,63,0.01,,,0.04,weatherlink.com 1.10,2013-03-10 18:08:00,
2013-03-10 18:23:00,38.0,27.0,29.70,East,98,11.0,21.0,65,0.00,,,0.04,weatherlink.com 1.10,2013-03-10 18:23:00,
2013-03-10 18:38:00,37.8,26.0,29.70,East,100,12.0,23.0,63,0.00,,,0.04,weatherlink.com 1.10,2013-03-10 18:38:00,
2013-03-10 18:53:00,37.6,26.0,29.71,NE,47,13.0,25.0,63,0.01,,,0.05,weatherlink.com 1.10,2013-03-10 18:53:00,
2013-03-10 19:08:00,37.5,23.0,29.72,East,101,11.0,28.0,56,0.02,,,0.06,weatherlink.com 1.10,2013-03-10 19:08:00,
2013-03-10 19:23:00,37.2,23.0,29.73,SE,129,14.0,26.0,58,0.04,,,0.08,weatherlink.com 1.10,2013-03-10 19:23:00,
2013-03-10 19:38:00,37.1,23.0,29.73,East,87,19.0,26.0,56,0.05,,,0.09,weatherlink.com 1.10,2013-03-10 19:38:00,
2013-03-10 19:53:00,37.0,25.0,29.73,East,100,12.0,27.0,61,0.04,,,0.09,weatherlink.com 1.10,2013-03-10 19:53:00,
2013-03-10 20:08:00,36.7,23.0,29.74,East,81,19.0,25.0,58,0.03,,,0.09,weatherlink.com 1.10,2013-03-10 20:08:00,
2013-03-10 20:23:00,36.1,22.0,29.75,East,85,17.0,28.0,56,0.02,,,0.09,weatherlink.com 1.10,2013-03-10 20:23:00,
2013-03-10 20:38:00,35.7,20.0,29.75,East,100,12.0,28.0,54,0.02,,,0.10,weatherlink.com 1.10,2013-03-10 20:38:00,
2013-03-10 20:53:00,35.5,20.0,29.75,ESE,121,15.0,25.0,54,0.03,,,0.12,weatherlink.com 1.10,2013-03-10 20:53:00,
2013-03-10 21:08:00,35.4,21.0,29.75,East,80,18.0,27.0,55,0.02,,,0.12,weatherlink.com 1.10,2013-03-10 21:08:00,
2013-03-10 21:23:00,35.3,20.0,29.76,East,99,5.0,23.0,54,0.02,,,0.12,weatherlink.com 1.10,2013-03-10 21:23:00,
2013-03-10 21:38:00,35.1,18.0,29.76,ESE,106,17.0,24.0,51,0.02,,,0.13,weatherlink.com 1.10,2013-03-10 21:38:00,
2013-03-10 21:53:00,34.9,19.0,29.77,ESE,105,17.0,28.0,52,0.01,,,0.13,weatherlink.com 1.10,2013-03-10 21:53:00,
2013-03-10 22:08:00,34.7,19.0,29.77,ESE,108,12.0,26.0,54,0.02,,,0.13,weatherlink.com 1.10,2013-03-10 22:08:00,
2013-03-10 22:23:00,34.8,19.0,29.76,ESE,123,13.0,23.0,52,0.02,,,0.13,weatherlink.com 1.10,2013-03-10 22:23:00,
2013-03-10 22:38:00,34.7,19.0,29.77,WSW,250,10.0,27.0,53,0.02,,,0.14,weatherlink.com 1.10,2013-03-10 22:38:00,
2013-03-10 22:53:00,34.5,20.0,29.77,East,86,17.0,21.0,55,0.02,,,0.14,weatherlink.com 1.10,2013-03-10 22:53:00,
2013-03-10 23:08:00,34.6,19.0,29.77,East,82,11.0,24.0,54,0.02,,,0.15,weatherlink.com 1.10,2013-03-10 23:08:00,
2013-03-10 23:24:00,34.5,17.0,29.77,ESE,111,12.0,24.0,50,0.02,,,0.15,weatherlink.com 1.10,2013-03-10 23:24:00,
2013-03-10 23:39:00,34.4,20.0,29.77,ESE,108,16.0,26.0,56,0.02,,,0.16,weatherlink.com 1.10,2013-03-10 23:39:00,
2013-03-10 23:54:00,34.1,20.0,29.77,ESE,103,15.0,22.0,56,0.02,,,0.17,weatherlink.com 1.10,2013-03-10 23:54:00,